Flag for U.S.A. Weather past 2 weeks in Narragansett, Rhode Island, U.S.A.

Now
28 °F

Snow. Ice fog.


Feels Like: 13 °F
Forecast: 19 / 30 °F
Wind: 26 mph from Northeast

Location: Newport State Airport

Current Time: Jan 27, 2015 at 1:03:14 AM

Latest Report: Jan 26, 2015 at 11:53 PM


Visibility: 0 mi

Pressure: 29.60 "Hg

Humidity: 93%

Dew point: 26 °F

Location of NarragansettLocation

Historic Weather in Narragansett — Graph

°F

Narragansett temperature yesterday

Maximum temperature yesterday: 29 °F (at 5:04 PM)
Minimum temperature yesterday: 18 °F (at 6:53 AM)
Average temperature yesterday: 24 °F

Past Weeks' High & Low Weather Summary

 TemperatureHumidityPressure
High50 °F (Jan 18, 12:53 PM)100% (Jan 12, 3:53 PM)30.63 "Hg (Jan 12, 3:53 PM)
Low12 °F (Jan 17, 6:53 AM)27% (Jan 17, 1:53 PM)29.09 "Hg (Jan 24, 4:53 PM)
Average30 °F69%30.02 "Hg
* Reported Jan 11 11:53 PM — Jan 26 11:53 PM, Narragansett, Weather by CustomWeather, © 2014

Note: Actual official high and low records may vary slightly from our data, if they occured in-between our weather recording intervals... More about our weather records

Advertising

Narragansett weather history for previous 24 hours

 ConditionsComfort  
Time TempWeatherWind HumidityBarometerVisibility
11:53 PM
Jan 26
28 °FSnow. Ice fog.26 mph93%29.60 "Hg1 mi
10:53 PM28 °FLight snow. Ice fog.31 mph93%29.66 "Hg1 mi
9:53 PM28 °FLight snow. Ice fog.26 mph93%29.72 "Hg1 mi
8:53 PM29 °FLight snow. Ice fog.24 mph89%29.80 "Hg1 mi
7:53 PM29 °FLight snow. Ice fog.21 mph89%29.86 "Hg1 mi
6:53 PM29 °FLight snow. Ice fog.20 mph89%29.90 "Hg3 mi
5:53 PM29 °FLight snow. Ice fog.17 mph89%29.91 "Hg2 mi
5:04 PM29 °FLight snow. Ice fog.15 mph89%29.94 "Hg2 mi
3:53 PM28 °FLight snow. Ice fog.14 mph89%29.95 "Hg1 mi
2:53 PM28 °FLight snow. Ice fog.13 mph89%29.95 "Hg1 mi
1:53 PM25 °FLight snow. Ice fog.12 mph85%29.96 "Hg1 mi
12:53 PM23 °FLight snow. Ice fog.16 mph85%29.99 "Hg4 mi
12:01 PM22 °FLight snow. Ice fog.15 mph85%30.02 "Hg1 mi
11:03 AM20 °FLight snow. Overcast.13 mph82%30.06 "Hg3 mi
10:53 AM20 °FLight snow. Mostly cloudy.10 mph78%30.07 "Hg2 mi
9:53 AM19 °FOvercast.13 mph68%30.08 "Hg10 mi
8:53 AM18 °FOvercast.14 mph68%30.07 "Hg10 mi
7:53 AM18 °FMostly cloudy.14 mph62%30.08 "Hg10 mi
6:53 AM18 °FMostly cloudy.13 mph59%30.08 "Hg10 mi
5:53 AM19 °FOvercast.10 mph52%30.08 "Hg10 mi
4:53 AM20 °FOvercast.10 mph48%30.07 "Hg10 mi
3:53 AM21 °FPassing clouds.12 mph52%30.06 "Hg10 mi
2:53 AM21 °FPassing clouds.12 mph50%30.05 "Hg10 mi
1:53 AM22 °FClear.8 mph46%30.04 "Hg10 mi
Weather by CustomWeather, © 2014

See weather overviewHow to use our weather pages